Aérodrome :
LOGIN :

S'inscrire | Disclaimer

   EN    FR    IT 

 










Légende :    VFR   VFR Marginal   IFR   IFR Intensif   IFR Très Intensif
Visi : 
Plafond : 
>= 8 km
>= 3000ft
5 à 8 km
1000 à 3000 ft
1500m à 5 km
500 à 1000 ft
800 à 1500m
200 à 500 ft
< 800m
< 200 ft
Symboles :   Orages  Brouillard  Fortes neiges  Fortes précipitations  Vent > 20 kt
SIGMETs :   Divers  Orages  Givrage  Turbulence  Onde Orograph.  Cendres Volcan.






- Altitude de l'aérodrome : 75 ft
- Code IATA : YEO


EGDY - RNAS Yeovilton

DERNIER METAR :
  • 200918Z 08001KT CAVOK 12/04 Q1018 NOSIG RMK BLU BLU

METARs EXPIRÉS :
  • 200850Z 02001KT CAVOK 11/05 Q1018 NOSIG RMK BLU BLU
  • 200821Z 29001KT CAVOK 08/06 Q1018 NOSIG RMK BLU BLU
  • 200750Z 28001KT 8000 HZ FEW140 05/04 Q1018 BECMG CAVOK RMK BLU BLU
  • 200719Z 29001KT 7000 HZ FEW140 03/03 Q1018 BECMG CAVOK RMK WHT BECMG BLU
  • 200650Z 00000KT 6000 BR FEW140 02/02 Q1018 BECMG CAVOK RMK WHT BECMG BLU

TAF TAF EGDY
Valide du 20 à 09h jusqu'au 20 à 18h UTC


200727Z 2009/2018 VRB03KT CAVOK
BECMG 2013/2015 23007KT FEW045



MET'MAP, la Météo Aéronautique d'un coup d'oeil ! - Copyright ORBIFLY Décembre 2007 - Disclaimer

ORBIFLY MET'MAP TEAM :

Programmation & Développement : Alexandra Zaïnal
Sur une idée originale de : Baudouin d'Aumeries
Assistance à la programmation : Marc-Olivier Méhu
Soutien technique & logistique : Manuel Goepfert

Contact : metmap@orbifly.com




SOURCES & CREDITS :

   NOAA